This is the latest recevied weather packets stored in our database for station/object N7WGJ. If no packets are shown the sender has not sent any weather packets the latest 10 day(s).
| Time | Temp. | Humidity | Pressure | Rain* | Wind** | Luminosity | Snow |
|---|---|---|---|---|---|---|---|
| 1777408291 | 12.22° C | 74% | 1024 hPa | 0 mm | - | - | - |
| 1777407693 | 12.78° C | 71% | 1023.9 hPa | 0 mm | - | - | - |
| 1777407092 | 13.33° C | 72% | 1023.8 hPa | 0 mm | - | - | - |
| 1777406513 | 13.33° C | 70% | 1023.7 hPa | 0 mm | - | - | - |
| 1777405900 | 12.78° C | 76% | 1023.7 hPa | 0 mm | - | - | - |
| 1777405298 | 12.22° C | 76% | 1023.7 hPa | 0 mm | - | - | - |
| 1777404699 | 11.67° C | 78% | 1023.7 hPa | 0 mm | - | - | - |
| 1777404081 | 11.11° C | 79% | 1023.7 hPa | 0 mm | - | - | - |
| 1777403498 | 11.11° C | 80% | 1023.7 hPa | 0 mm | - | - | - |
| 1777402895 | 11.11° C | 80% | 1023.7 hPa | 0 mm | - | - | - |
| 1777402289 | 11.11° C | 79% | 1023.7 hPa | 0 mm | - | - | - |
| 1777401689 | 11.67° C | 80% | 1023.5 hPa | 0 mm | - | - | - |
| 1777401090 | 11.11° C | 80% | 1023.4 hPa | 0 mm | - | - | - |
| 1777400488 | 11.11° C | 80% | 1023.4 hPa | 0 mm | - | - | - |
| 1777399890 | 11.11° C | 80% | 1023.3 hPa | 0 mm | - | - | - |
| 1777399310 | 11.11° C | 80% | 1023.3 hPa | 0 mm | - | - | - |
| 1777398686 | 11.11° C | 80% | 1023.3 hPa | 0 mm | - | - | - |
| 1777398083 | 11.11° C | 81% | 1023.3 hPa | 0 mm | - | - | - |
| 1777397484 | 11.11° C | 81% | 1023.3 hPa | 0 mm | - | - | - |
| 1777396888 | 11.11° C | 81% | 1023.2 hPa | 0 mm | - | - | - |
| 1777396290 | 10.56° C | 82% | 1023.2 hPa | 0 mm | - | - | - |
| 1777395687 | 11.11° C | 83% | 1023.1 hPa | 0 mm | - | - | - |
| 1777395099 | 10.56° C | 86% | 1023 hPa | 0 mm | - | - | - |
| 1777394502 | 10° C | 86% | 1023 hPa | 0 mm | - | - | - |
| 1777393882 | 10° C | 88% | 1023 hPa | 0 mm | - | - | - |
* Rain latest hour (hover to see other rain measurements)
** Current wind speed in m/s (hover to see current wind gust speed)